�������l�o���
Date,Time,MP-1(��Sv/h),MP-2(��Sv/h),MP-3(��Sv/h),MP-4(��Sv/h),MP-5(��Sv/h),MP-6(��Sv/h),MP-7(��Sv/h),MP-8(��Sv/h),����,����(m/s),���J
2018/07/08,00:00,0.843,1.196,0.836,1.505,1.044,0.463,0.814,0.775,��쐼,2.8,��
2018/07/08,00:10,0.844,1.195,0.837,1.506,1.045,0.466,0.813,0.775,��쐼,3.3,��
2018/07/08,00:20,0.843,1.195,0.835,1.507,1.042,0.466,0.814,0.775,��,3.5,��
2018/07/08,00:30,0.844,1.197,0.838,1.503,1.045,0.466,0.815,0.775,��,4.2,��
2018/07/08,00:40,0.845,1.194,0.834,1.505,1.044,0.466,0.813,0.775,��,4.7,��
2018/07/08,00:50,0.844,1.196,0.835,1.504,1.043,0.466,0.815,0.777,��쐼,4.3,��
2018/07/08,01:00,0.844,1.194,0.834,1.507,1.043,0.466,0.813,0.774,��,4.0,��
2018/07/08,01:10,0.844,1.195,0.837,1.509,1.043,0.465,0.814,0.775,��,4.8,��
2018/07/08,01:20,0.844,1.196,0.837,1.507,1.044,0.466,0.814,0.774,��,5.3,��
2018/07/08,01:30,0.843,1.195,0.834,1.508,1.046,0.467,0.815,0.775,��,4.3,��
2018/07/08,01:40,0.843,1.196,0.834,1.505,1.043,0.466,0.814,0.773,��,5.0,��
2018/07/08,01:50,0.841,1.193,0.836,1.506,1.043,0.466,0.814,0.775,��,6.5,��
2018/07/08,02:00,0.845,1.195,0.836,1.506,1.044,0.466,0.814,0.774,��,7.1,��
2018/07/08,02:10,0.842,1.196,0.838,1.510,1.044,0.467,0.815,0.775,��,7.4,��
2018/07/08,02:20,0.847,1.193,0.836,1.507,1.045,0.465,0.814,0.777,��,6.6,��
2018/07/08,02:30,0.844,1.194,0.836,1.508,1.045,0.466,0.816,0.776,��,7.7,��
2018/07/08,02:40,0.843,1.192,0.837,1.506,1.044,0.466,0.816,0.776,��,6.9,��
2018/07/08,02:50,0.842,1.195,0.837,1.508,1.046,0.466,0.815,0.776,��,6.3,��
2018/07/08,03:00,0.842,1.194,0.836,1.507,1.047,0.466,0.814,0.775,��,5.5,��
2018/07/08,03:10,0.844,1.193,0.837,1.506,1.045,0.466,0.815,0.777,��,4.8,��
2018/07/08,03:20,0.843,1.194,0.837,1.505,1.044,0.467,0.816,0.777,��,5.3,��
2018/07/08,03:30,0.843,1.192,0.836,1.506,1.046,0.467,0.814,0.775,��,4.5,��
2018/07/08,03:40,0.844,1.194,0.836,1.506,1.046,0.467,0.813,0.775,��,4.9,��
2018/07/08,03:50,0.843,1.195,0.835,1.507,1.043,0.466,0.815,0.775,��,4.4,��
2018/07/08,04:00,0.843,1.193,0.837,1.506,1.044,0.465,0.812,0.774,��,4.3,��
2018/07/08,04:10,0.841,1.194,0.836,1.508,1.045,0.466,0.815,0.776,��,4.3,��
2018/07/08,04:20,0.842,1.194,0.834,1.507,1.045,0.467,0.815,0.774,��,4.0,��
2018/07/08,04:30,0.843,1.192,0.836,1.504,1.046,0.466,0.814,0.777,��쐼,4.1,��
2018/07/08,04:40,0.842,1.193,0.835,1.505,1.042,0.467,0.815,0.776,��쐼,2.6,��
2018/07/08,04:50,0.842,1.194,0.839,1.508,1.047,0.467,0.814,0.775,�쐼,1.4,��
2018/07/08,05:00,0.844,1.194,0.836,1.506,1.047,0.467,0.813,0.774,�쐼,1.1,��
2018/07/08,05:10,0.845,1.195,0.836,1.506,1.045,0.466,0.816,0.775,�쐼,0.6,��
2018/07/08,05:20,0.844,1.195,0.836,1.508,1.045,0.467,0.815,0.775,��,1.2,��
2018/07/08,05:30,0.843,1.193,0.836,1.508,1.043,0.467,0.814,0.776,��쓌,1.7,��
2018/07/08,05:40,0.844,1.194,0.837,1.506,1.045,0.468,0.814,0.776,��,2.5,��
2018/07/08,05:50,0.843,1.194,0.837,1.507,1.046,0.466,0.814,0.778,��,2.5,��
2018/07/08,06:00,0.843,1.193,0.834,1.506,1.044,0.465,0.814,0.776,��,3.4,��
2018/07/08,06:10,0.843,1.196,0.839,1.506,1.046,0.466,0.814,0.777,��쓌,3.8,��
2018/07/08,06:20,0.840,1.193,0.836,1.507,1.046,0.467,0.814,0.776,��,3.2,��
2018/07/08,06:30,0.843,1.195,0.837,1.507,1.044,0.467,0.814,0.776,��쓌,3.7,��
2018/07/08,06:40,0.842,1.195,0.838,1.507,1.046,0.466,0.814,0.777,��,3.5,��
2018/07/08,06:50,0.842,1.193,0.836,1.505,1.044,0.465,0.815,0.774,��쓌,3.8,��
2018/07/08,07:00,0.843,1.195,0.837,1.506,1.045,0.465,0.813,0.774,��,4.5,��
2018/07/08,07:10,0.841,1.192,0.836,1.508,1.043,0.465,0.814,0.776,��,6.1,��
2018/07/08,07:20,0.841,1.194,0.836,1.508,1.045,0.464,0.813,0.774,��,8.1,��
2018/07/08,07:30,0.841,1.196,0.837,1.509,1.045,0.467,0.813,0.773,��,7.8,��
2018/07/08,07:40,0.844,1.194,0.838,1.507,1.044,0.467,0.814,0.773,��쐼,7.1,��
2018/07/08,07:50,0.842,1.194,0.835,1.509,1.045,0.468,0.814,0.774,��,4.7,��
2018/07/08,08:00,0.841,1.197,0.836,1.507,1.046,0.467,0.814,0.775,��쓌,1.4,��
2018/07/08,08:10,0.844,1.195,0.836,1.509,1.046,0.467,0.813,0.773,��쓌,2.3,��
2018/07/08,08:20,0.843,1.196,0.839,1.508,1.046,0.467,0.814,0.772,��쓌,3.5,��
2018/07/08,08:30,0.843,1.195,0.837,1.509,1.045,0.467,0.814,0.773,��쓌,3.7,��
2018/07/08,08:40,0.841,1.196,0.838,1.510,1.045,0.467,0.815,0.775,��쓌,4.8,��
2018/07/08,08:50,0.843,1.198,0.837,1.509,1.049,0.467,0.815,0.774,��쓌,5.0,��
2018/07/08,09:00,0.844,1.199,0.837,1.508,1.048,0.467,0.816,0.774,��쓌,5.3,��
2018/07/08,09:10,0.842,1.199,0.836,1.512,1.047,0.467,0.816,0.773,��쓌,4.4,��
2018/07/08,09:20,0.843,1.197,0.838,1.511,1.046,0.467,0.813,0.775,��쓌,4.5,�L
2018/07/08,09:30,0.842,1.197,0.836,1.509,1.048,0.468,0.815,0.774,��쓌,4.1,�L
2018/07/08,09:40,0.842,1.198,0.836,1.508,1.049,0.467,0.815,0.774,��,2.5,��
2018/07/08,09:50,0.844,1.199,0.838,1.508,1.047,0.466,0.817,0.774,��,2.6,��
2018/07/08,10:00,0.843,1.197,0.838,1.510,1.050,0.468,0.816,0.773,��,4.9,��
2018/07/08,10:10,0.843,1.199,0.838,1.513,1.048,0.468,0.814,0.774,��,5.9,��
2018/07/08,10:20,0.844,1.198,0.838,1.512,1.049,0.468,0.815,0.776,��,6.3,��
2018/07/08,10:30,0.847,1.200,0.839,1.512,1.050,0.469,0.816,0.774,��,5.5,��
2018/07/08,10:40,0.846,1.198,0.839,1.509,1.047,0.469,0.814,0.774,��,6.5,��
2018/07/08,10:50,0.845,1.202,0.839,1.510,1.051,0.470,0.815,0.775,��쓌,7.2,��
2018/07/08,11:00,0.845,1.199,0.838,1.512,1.049,0.468,0.817,0.776,��,7.9,��
2018/07/08,11:10,0.847,1.201,0.841,1.511,1.051,0.470,0.817,0.774,��쓌,9.6,��
2018/07/08,11:20,0.847,1.206,0.842,1.509,1.054,0.469,0.815,0.776,��쓌,11.6,��
2018/07/08,11:30,0.845,1.203,0.841,1.511,1.054,0.468,0.817,0.775,��쓌,12.2,��
2018/07/08,11:40,0.846,1.207,0.840,1.510,1.053,0.470,0.819,0.777,��,11.0,��
2018/07/08,11:50,0.846,1.207,0.842,1.513,1.055,0.470,0.818,0.775,��,11.6,��
2018/07/08,12:00,0.848,1.207,0.843,1.511,1.056,0.471,0.818,0.775,��,13.1,��
2018/07/08,12:10,0.849,1.209,0.844,1.513,1.057,0.469,0.818,0.777,��,12.4,��
2018/07/08,12:20,0.851,1.209,0.842,1.513,1.055,0.471,0.818,0.776,��,12.1,��
2018/07/08,12:30,0.848,1.210,0.841,1.513,1.056,0.471,0.818,0.776,��,13.0,��
2018/07/08,12:40,0.848,1.210,0.840,1.514,1.057,0.470,0.818,0.776,��,13.6,��
2018/07/08,12:50,0.849,1.213,0.843,1.515,1.055,0.470,0.816,0.775,��,11.7,��
2018/07/08,13:00,0.849,1.212,0.844,1.514,1.057,0.470,0.818,0.776,��,13.3,��
2018/07/08,13:10,0.851,1.214,0.845,1.518,1.057,0.471,0.819,0.778,��쓌,12.7,��
2018/07/08,13:20,0.851,1.214,0.844,1.517,1.057,0.471,0.820,0.778,��,12.5,��
2018/07/08,13:30,0.852,1.214,0.845,1.521,1.057,0.471,0.820,0.777,��,11.3,��
2018/07/08,13:40,0.851,1.215,0.845,1.517,1.057,0.470,0.820,0.776,��,11.6,��
2018/07/08,13:50,0.850,1.216,0.847,1.518,1.057,0.473,0.820,0.776,��,11.3,��
2018/07/08,14:00,0.849,1.216,0.846,1.518,1.058,0.472,0.819,0.778,��,10.8,��
2018/07/08,14:10,0.851,1.215,0.845,1.516,1.059,0.474,0.819,0.778,��,9.9,��
2018/07/08,14:20,0.851,1.216,0.846,1.520,1.059,0.473,0.820,0.778,��,9.1,��
2018/07/08,14:30,0.852,1.218,0.845,1.520,1.060,0.471,0.820,0.777,��,10.3,��
2018/07/08,14:40,0.851,1.218,0.846,1.518,1.059,0.472,0.820,0.777,��,8.1,��
2018/07/08,14:50,0.852,1.218,0.847,1.520,1.061,0.472,0.818,0.779,��,8.0,��
2018/07/08,15:00,0.852,1.216,0.845,1.519,1.060,0.473,0.819,0.778,��,7.2,��
2018/07/08,15:10,0.852,1.219,0.846,1.520,1.061,0.471,0.821,0.776,��,5.6,��
2018/07/08,15:20,0.852,1.221,0.846,1.521,1.064,0.471,0.820,0.779,��,7.2,��
2018/07/08,15:30,0.854,1.221,0.846,1.520,1.063,0.472,0.821,0.776,��,6.0,��
2018/07/08,15:40,0.851,1.219,0.845,1.519,1.064,0.472,0.820,0.777,��,5.6,��
2018/07/08,15:50,0.854,1.220,0.848,1.520,1.064,0.472,0.819,0.778,��,5.8,��
2018/07/08,16:00,0.852,1.221,0.845,1.521,1.062,0.472,0.820,0.777,��,6.9,��
2018/07/08,16:10,0.854,1.221,0.849,1.522,1.064,0.474,0.820,0.778,��,6.7,��
2018/07/08,16:20,0.851,1.221,0.848,1.522,1.066,0.473,0.821,0.777,��,6.4,��
2018/07/08,16:30,0.852,1.222,0.849,1.521,1.065,0.474,0.820,0.776,��,7.0,��
2018/07/08,16:40,0.853,1.221,0.849,1.524,1.066,0.473,0.820,0.776,��,5.9,��
2018/07/08,16:50,0.853,1.222,0.847,1.525,1.063,0.474,0.820,0.779,��,4.9,��
2018/07/08,17:00,0.853,1.219,0.850,1.525,1.066,0.475,0.820,0.779,��,4.3,��
2018/07/08,17:10,0.853,1.219,0.849,1.525,1.063,0.474,0.820,0.778,��쐼,2.3,��
2018/07/08,17:20,0.852,1.219,0.848,1.522,1.066,0.472,0.822,0.776,�k�k��,0.8,��
2018/07/08,17:30,0.852,1.220,0.849,1.518,1.064,0.473,0.821,0.779,�k,1.7,��
2018/07/08,17:40,0.853,1.220,0.847,1.524,1.065,0.472,0.820,0.779,�k�k��,2.0,��
2018/07/08,17:50,0.852,1.222,0.846,1.522,1.067,0.473,0.817,0.778,���k��,1.7,��
2018/07/08,18:00,0.852,1.221,0.848,1.522,1.065,0.472,0.818,0.779,�k��,2.2,��
2018/07/08,18:10,0.851,1.219,0.847,1.522,1.066,0.472,0.818,0.779,�k�k��,3.7,��
2018/07/08,18:20,0.850,1.222,0.848,1.522,1.063,0.471,0.819,0.779,�k�k��,3.4,��
2018/07/08,18:30,0.850,1.219,0.848,1.525,1.066,0.472,0.818,0.779,�k��,2.9,��
2018/07/08,18:40,0.851,1.220,0.849,1.525,1.065,0.470,0.819,0.780,�k��,2.2,��
2018/07/08,18:50,0.850,1.222,0.848,1.523,1.065,0.472,0.818,0.779,�k�k��,3.1,��
2018/07/08,19:00,0.851,1.218,0.848,1.524,1.067,0.470,0.820,0.781,�k�k��,1.9,��
2018/07/08,19:10,0.850,1.219,0.849,1.522,1.067,0.472,0.818,0.779,�k�k��,3.9,��
2018/07/08,19:20,0.849,1.220,0.847,1.524,1.067,0.470,0.820,0.780,�k�k��,4.0,��
2018/07/08,19:30,0.853,1.223,0.847,1.526,1.062,0.470,0.819,0.780,�k,3.6,��
2018/07/08,19:40,0.852,1.221,0.849,1.526,1.064,0.470,0.819,0.780,�k,3.5,��
2018/07/08,19:50,0.850,1.221,0.847,1.527,1.066,0.470,0.820,0.780,�k�k��,3.6,��
2018/07/08,20:00,0.850,1.220,0.849,1.527,1.070,0.470,0.819,0.781,�k,3.0,��
2018/07/08,20:10,0.851,1.219,0.848,1.527,1.066,0.471,0.820,0.780,�k�k��,3.1,��
2018/07/08,20:20,0.851,1.220,0.848,1.524,1.067,0.470,0.820,0.780,�k�k��,2.2,��
2018/07/08,20:30,0.853,1.221,0.850,1.525,1.067,0.470,0.820,0.778,��,0.8,��
2018/07/08,20:40,0.853,1.221,0.846,1.524,1.066,0.470,0.820,0.779,�k��,1.2,��
2018/07/08,20:50,0.854,1.222,0.850,1.526,1.065,0.471,0.820,0.780,���k��,1.2,��
2018/07/08,21:00,0.853,1.219,0.849,1.524,1.065,0.472,0.820,0.779,���쐼,0.9,��
2018/07/08,21:10,0.854,1.219,0.850,1.526,1.063,0.471,0.820,0.780,-,CALM,��
2018/07/08,21:20,0.853,1.222,0.850,1.525,1.064,0.469,0.820,0.779,��,0.9,��
2018/07/08,21:30,0.854,1.219,0.847,1.524,1.066,0.471,0.820,0.778,-,CALM,��
2018/07/08,21:40,0.852,1.222,0.850,1.526,1.065,0.469,0.820,0.778,�k,0.9,��
2018/07/08,21:50,0.851,1.220,0.850,1.522,1.067,0.469,0.819,0.779,�k�k��,0.9,��
2018/07/08,22:00,0.852,1.219,0.848,1.525,1.067,0.469,0.821,0.781,-,CALM,��
2018/07/08,22:10,0.852,1.219,0.849,1.522,1.068,0.469,0.818,0.779,���k��,1.1,��
2018/07/08,22:20,0.851,1.219,0.850,1.524,1.066,0.470,0.819,0.781,-,CALM,��
2018/07/08,22:30,0.850,1.221,0.850,1.522,1.067,0.470,0.820,0.780,�k�k��,0.6,��
2018/07/08,22:40,0.850,1.218,0.848,1.523,1.067,0.469,0.821,0.778,�k��,0.6,��
2018/07/08,22:50,0.849,1.221,0.848,1.522,1.067,0.468,0.820,0.779,�k��,0.6,��
2018/07/08,23:00,0.852,1.218,0.850,1.528,1.066,0.470,0.819,0.780,-,CALM,��
2018/07/08,23:10,0.851,1.222,0.849,1.525,1.067,0.469,0.819,0.780,�k��,1.1,��
2018/07/08,23:20,0.853,1.217,0.851,1.523,1.065,0.469,0.819,0.780,���k��,1.1,��
2018/07/08,23:30,0.852,1.222,0.850,1.524,1.065,0.471,0.820,0.779,-,CALM,��
2018/07/08,23:40,0.853,1.218,0.848,1.523,1.065,0.470,0.822,0.781,-,CALM,��
2018/07/08,23:50,0.855,1.218,0.848,1.524,1.065,0.471,0.817,0.779,���쓌,0.8,��
